EJU98ZN LIEO-LIRI

Flight info

Callsign EJU98ZN
Flight time 0h 56m
Altitude 32000
Route ATNET DCT ROXAN DCT VEXUV/N0350F190 M620 SOR
Aircraft A319/M-SDE3FGHIRWY/LB1

Departure

Time 2026-05-04 13:58
Airport Olbia Costa Smeralda Airport (LIEO)

Arrival

Time 2026-05-04 14:54
Airport Salerno Costa d'Amalfi Airport (LIRI)
Time Latitude Longitude Altitude Speed Heading
2026-05-04 13:29 40.90134 9.51716 34 ft 0 kts 85°
2026-05-04 13:48 40.90135 9.51717 34 ft 0 kts 76°
2026-05-04 13:48 40.90141 9.51719 34 ft 3 kts 25°
2026-05-04 13:48 40.90168 9.51686 34 ft 8 kts 300°
2026-05-04 13:48 40.90150 9.51624 33 ft 8 kts 232°
2026-05-04 13:49 40.90115 9.51561 34 ft 8 kts 237°
2026-05-04 13:49 40.90087 9.51503 34 ft 7 kts 237°
2026-05-04 13:49 40.90046 9.51481 34 ft 7 kts 158°
2026-05-04 13:49 40.90001 9.51518 34 ft 8 kts 162°
2026-05-04 13:50 40.89943 9.51500 33 ft 9 kts 209°
2026-05-04 13:50 40.89901 9.51437 34 ft 10 kts 235°
2026-05-04 13:50 40.89862 9.51363 34 ft 10 kts 236°
2026-05-04 13:50 40.89819 9.51281 34 ft 11 kts 235°
2026-05-04 13:51 40.89774 9.51195 33 ft 12 kts 235°
2026-05-04 13:51 40.89727 9.51106 34 ft 12 kts 235°
2026-05-04 13:51 40.89677 9.51012 34 ft 13 kts 235°
2026-05-04 13:51 40.89626 9.50913 34 ft 13 kts 235°
2026-05-04 13:52 40.89531 9.50733 34 ft 9 kts 235°
2026-05-04 13:52 40.89493 9.50659 34 ft 10 kts 235°
2026-05-04 13:52 40.89453 9.50585 34 ft 10 kts 235°
2026-05-04 13:53 40.89414 9.50511 34 ft 10 kts 235°
2026-05-04 13:53 40.89378 9.50451 34 ft 8 kts 216°
2026-05-04 13:53 40.89321 9.50439 34 ft 9 kts 174°
2026-05-04 13:54 40.89267 9.50577 35 ft 9 kts 101°
2026-05-04 13:54 40.89275 9.50634 33 ft 0 kts 55°
2026-05-04 13:56 40.89359 9.50793 33 ft 57 kts 56°
2026-05-04 13:57 40.89724 9.51490 35 ft 125 kts 56°
2026-05-04 13:57 40.90302 9.52620 325 ft 152 kts 59°
2026-05-04 13:58 40.92214 9.56315 2013 ft 188 kts 58°
2026-05-04 13:58 40.93911 9.59511 2815 ft 237 kts 57°
2026-05-04 13:58 40.94893 9.61338 3574 ft 247 kts 56°
2026-05-04 13:59 40.95903 9.63210 4506 ft 253 kts 56°
2026-05-04 13:59 40.96839 9.65203 5381 ft 258 kts 66°
2026-05-04 13:59 40.97345 9.69904 7011 ft 266 kts 107°
2026-05-04 14:00 40.96613 9.72137 7884 ft 266 kts 126°
2026-05-04 14:00 40.94585 9.76323 9713 ft 275 kts 127°
2026-05-04 14:00 40.93533 9.78494 10351 ft 290 kts 126°
2026-05-04 14:01 40.92396 9.80830 10691 ft 314 kts 126°
2026-05-04 14:01 40.91174 9.83341 11050 ft 335 kts 126°
2026-05-04 14:01 40.88595 9.88663 12547 ft 349 kts 126°
2026-05-04 14:02 40.87281 9.91385 13368 ft 354 kts 126°
2026-05-04 14:02 40.85950 9.94144 14136 ft 358 kts 126°
2026-05-04 14:02 40.84601 9.96936 14837 ft 362 kts 126°
2026-05-04 14:02 40.83236 9.99752 15554 ft 366 kts 126°
2026-05-04 14:03 40.81856 10.02590 16287 ft 369 kts 126°
2026-05-04 14:03 40.80447 10.05492 17015 ft 372 kts 125°
2026-05-04 14:03 40.79044 10.08382 17718 ft 376 kts 125°
2026-05-04 14:03 40.77821 10.11459 18388 ft 383 kts 114°
2026-05-04 14:04 40.76857 10.18454 19610 ft 396 kts 89°
2026-05-04 14:04 40.77074 10.22095 20204 ft 400 kts 85°
2026-05-04 14:04 40.77321 10.25768 20822 ft 403 kts 85°
2026-05-04 14:05 40.77794 10.33197 22023 ft 410 kts 85°
2026-05-04 14:05 40.78026 10.36967 22614 ft 413 kts 85°
2026-05-04 14:05 40.78257 10.40760 23200 ft 417 kts 85°
2026-05-04 14:06 40.78493 10.44592 23763 ft 420 kts 85°
2026-05-04 14:06 40.78732 10.48451 24215 ft 424 kts 85°
2026-05-04 14:06 40.78889 10.51031 24495 ft 427 kts 85°
2026-05-04 14:06 40.79122 10.54962 24902 ft 432 kts 85°
2026-05-04 14:07 40.79356 10.58938 25290 ft 438 kts 85°
2026-05-04 14:07 40.79595 10.62967 25676 ft 442 kts 85°
2026-05-04 14:07 40.79837 10.67037 26056 ft 447 kts 85°
2026-05-04 14:07 40.80082 10.71152 26426 ft 452 kts 84°
2026-05-04 14:08 40.80335 10.75312 26790 ft 457 kts 84°
2026-05-04 14:08 40.80589 10.79523 27157 ft 462 kts 84°
2026-05-04 14:08 40.80838 10.83754 27651 ft 463 kts 84°
2026-05-04 14:08 40.81084 10.87997 28160 ft 464 kts 84°
2026-05-04 14:09 40.81573 10.96525 29114 ft 468 kts 84°
2026-05-04 14:09 40.81816 11.00822 29592 ft 470 kts 84°
2026-05-04 14:10 40.82298 11.09452 30499 ft 473 kts 84°
2026-05-04 14:10 40.82534 11.13779 30949 ft 473 kts 84°
2026-05-04 14:10 40.82770 11.18115 31427 ft 473 kts 84°
2026-05-04 14:10 40.82905 11.22508 31899 ft 474 kts 90°
2026-05-04 14:11 40.82730 11.26855 32076 ft 474 kts 93°
2026-05-04 14:11 40.82051 11.39868 32114 ft 473 kts 93°
2026-05-04 14:12 40.81598 11.48522 32116 ft 472 kts 92°
2026-05-04 14:13 40.80906 11.61491 32116 ft 472 kts 92°
2026-05-04 14:13 40.80437 11.70132 32117 ft 472 kts 92°
2026-05-04 14:14 40.79965 11.78765 32132 ft 471 kts 92°
2026-05-04 14:14 40.79250 11.91697 32118 ft 471 kts 92°
2026-05-04 14:15 40.78261 12.08915 32118 ft 471 kts 92°
2026-05-04 14:16 40.77495 12.21874 32119 ft 470 kts 92°
2026-05-04 14:17 40.76740 12.34754 32133 ft 469 kts 92°
2026-05-04 14:18 40.75955 12.47636 31815 ft 471 kts 92°
2026-05-04 14:18 40.75426 12.56254 31319 ft 472 kts 92°
2026-05-04 14:19 40.74886 12.64876 30832 ft 472 kts 92°
2026-05-04 14:19 40.74609 12.69198 30590 ft 472 kts 92°
2026-05-04 14:19 40.74334 12.73508 30353 ft 473 kts 92°
2026-05-04 14:19 40.74060 12.77827 30107 ft 473 kts 92°
2026-05-04 14:20 40.73786 12.82142 29823 ft 472 kts 92°
2026-05-04 14:20 40.73510 12.86458 29546 ft 471 kts 92°
2026-05-04 14:20 40.73231 12.90760 29270 ft 470 kts 92°
2026-05-04 14:21 40.72672 12.99330 28732 ft 468 kts 92°
2026-05-04 14:21 40.72387 13.03595 28465 ft 467 kts 92°
2026-05-04 14:21 40.72101 13.07859 28201 ft 466 kts 92°
2026-05-04 14:21 40.71816 13.12099 27940 ft 465 kts 92°
2026-05-04 14:22 40.71533 13.16346 27683 ft 464 kts 92°
2026-05-04 14:22 40.71253 13.20579 27427 ft 463 kts 93°
2026-05-04 14:22 40.70967 13.24798 27171 ft 462 kts 93°
2026-05-04 14:22 40.70679 13.29007 26919 ft 460 kts 93°
2026-05-04 14:23 40.69902 13.37370 26305 ft 452 kts 97°
2026-05-04 14:23 40.69412 13.41445 25741 ft 449 kts 98°
2026-05-04 14:23 40.68904 13.45472 25299 ft 442 kts 98°
2026-05-04 14:24 40.68419 13.49447 24859 ft 437 kts 98°
2026-05-04 14:24 40.67957 13.53374 24421 ft 431 kts 97°
2026-05-04 14:24 40.67507 13.57261 23993 ft 427 kts 98°
2026-05-04 14:24 40.67061 13.61108 23543 ft 422 kts 98°
2026-05-04 14:25 40.66619 13.64920 23064 ft 419 kts 98°
2026-05-04 14:25 40.65733 13.72432 22118 ft 412 kts 98°
2026-05-04 14:25 40.65292 13.76138 21685 ft 407 kts 98°
2026-05-04 14:26 40.64851 13.79803 21238 ft 404 kts 98°
2026-05-04 14:26 40.64410 13.83440 20728 ft 402 kts 98°
2026-05-04 14:26 40.63967 13.87065 20298 ft 398 kts 98°
2026-05-04 14:26 40.63536 13.90594 20187 ft 384 kts 98°
2026-05-04 14:27 40.63116 13.94049 19614 ft 385 kts 98°
2026-05-04 14:27 40.62691 13.97547 18994 ft 388 kts 99°
2026-05-04 14:27 40.62261 14.01048 18522 ft 386 kts 99°
2026-05-04 14:27 40.61832 14.04531 18028 ft 384 kts 99°
2026-05-04 14:28 40.61407 14.07980 17548 ft 380 kts 99°
2026-05-04 14:28 40.60986 14.11401 17091 ft 377 kts 99°
2026-05-04 14:28 40.60570 14.14779 16557 ft 372 kts 99°
2026-05-04 14:28 40.60156 14.18118 15937 ft 367 kts 99°
2026-05-04 14:29 40.58295 14.24247 15079 ft 359 kts 120°
2026-05-04 14:29 40.55922 14.29868 14766 ft 337 kts 120°
2026-05-04 14:30 40.54799 14.32518 14648 ft 327 kts 120°
2026-05-04 14:30 40.53704 14.35092 14525 ft 317 kts 120°
2026-05-04 14:30 40.51645 14.39903 14288 ft 287 kts 120°
2026-05-04 14:31 40.50687 14.42134 14153 ft 274 kts 120°
2026-05-04 14:31 40.48867 14.46378 13795 ft 258 kts 120°
2026-05-04 14:32 40.47123 14.50443 13314 ft 253 kts 120°
2026-05-04 14:32 40.46262 14.52451 13054 ft 252 kts 120°
2026-05-04 14:32 40.45402 14.54450 12772 ft 251 kts 120°
2026-05-04 14:32 40.44547 14.56434 12499 ft 249 kts 120°
2026-05-04 14:33 40.43696 14.58408 12217 ft 248 kts 120°
2026-05-04 14:33 40.42847 14.60376 11939 ft 247 kts 120°
2026-05-04 14:33 40.42307 14.62484 11642 ft 245 kts 92°
2026-05-04 14:33 40.42641 14.64640 11329 ft 242 kts 60°
2026-05-04 14:34 40.43705 14.66312 11020 ft 240 kts 36°
2026-05-04 14:34 40.45173 14.67314 10712 ft 237 kts 14°
2026-05-04 14:34 40.46793 14.67551 10409 ft 234 kts 353°
2026-05-04 14:34 40.48352 14.67036 10101 ft 231 kts 333°
2026-05-04 14:35 40.49668 14.65851 9763 ft 229 kts 313°
2026-05-04 14:35 40.50592 14.64131 9414 ft 228 kts 293°
2026-05-04 14:35 40.50994 14.62134 9074 ft 227 kts 273°
2026-05-04 14:35 40.50855 14.60083 8733 ft 226 kts 253°
2026-05-04 14:36 40.50196 14.58224 8397 ft 225 kts 235°
2026-05-04 14:36 40.49260 14.56572 8067 ft 225 kts 231°
2026-05-04 14:36 40.48266 14.54990 7848 ft 225 kts 229°
2026-05-04 14:36 40.47254 14.53422 7651 ft 225 kts 229°
2026-05-04 14:37 40.46245 14.51857 7458 ft 224 kts 229°
2026-05-04 14:37 40.45247 14.50296 7263 ft 223 kts 230°
2026-05-04 14:37 40.44589 14.49262 7135 ft 223 kts 230°
2026-05-04 14:37 40.43172 14.47304 6873 ft 221 kts 214°
2026-05-04 14:38 40.42269 14.46702 6745 ft 220 kts 197°
2026-05-04 14:38 40.40747 14.46489 6551 ft 218 kts 172°
2026-05-04 14:38 40.39341 14.47124 6385 ft 218 kts 147°
2026-05-04 14:38 40.38244 14.48514 6254 ft 219 kts 122°
2026-05-04 14:39 40.37709 14.50362 6128 ft 219 kts 97°
2026-05-04 14:39 40.37818 14.52345 5996 ft 220 kts 72°
2026-05-04 14:39 40.38547 14.54101 5873 ft 221 kts 53°
2026-05-04 14:40 40.40488 14.57243 5620 ft 221 kts 50°
2026-05-04 14:40 40.41478 14.58786 5516 ft 221 kts 51°
2026-05-04 14:40 40.42465 14.60329 5443 ft 221 kts 51°
2026-05-04 14:40 40.43617 14.61636 5357 ft 221 kts 25°
2026-05-04 14:41 40.45109 14.62013 5289 ft 221 kts 353°
2026-05-04 14:41 40.46525 14.61307 5218 ft 220 kts 321°
2026-05-04 14:41 40.47618 14.57801 5028 ft 215 kts 258°
2026-05-04 14:42 40.46090 14.54526 4994 ft 214 kts 229°
2026-05-04 14:42 40.45139 14.53022 4913 ft 214 kts 228°
2026-05-04 14:42 40.44186 14.51525 4841 ft 214 kts 229°
2026-05-04 14:43 40.43237 14.50029 4758 ft 213 kts 229°
2026-05-04 14:43 40.42209 14.48639 4672 ft 212 kts 213°
2026-05-04 14:43 40.40843 14.47984 4601 ft 211 kts 184°
2026-05-04 14:43 40.39418 14.48308 4523 ft 211 kts 154°
2026-05-04 14:44 40.38308 14.49540 4448 ft 212 kts 123°
2026-05-04 14:44 40.37828 14.51382 4370 ft 214 kts 92°
2026-05-04 14:44 40.38127 14.53277 4287 ft 216 kts 62°
2026-05-04 14:44 40.39019 14.54869 4217 ft 217 kts 50°
2026-05-04 14:45 40.39985 14.56397 4129 ft 217 kts 50°
2026-05-04 14:45 40.40954 14.57918 4032 ft 217 kts 50°
2026-05-04 14:45 40.41917 14.59437 4002 ft 216 kts 50°
2026-05-04 14:45 40.42893 14.60936 3997 ft 216 kts 44°
2026-05-04 14:46 40.44133 14.62044 4054 ft 216 kts 31°
2026-05-04 14:46 40.45301 14.63280 3931 ft 216 kts 52°
2026-05-04 14:46 40.46190 14.64846 3731 ft 211 kts 54°
2026-05-04 14:46 40.47047 14.66393 3536 ft 208 kts 54°
2026-05-04 14:47 40.47886 14.67914 3320 ft 205 kts 54°
2026-05-04 14:47 40.48724 14.69435 3041 ft 206 kts 54°
2026-05-04 14:47 40.49566 14.70946 2847 ft 202 kts 52°
2026-05-04 14:47 40.50406 14.72329 2693 ft 193 kts 50°
2026-05-04 14:48 40.51159 14.73524 2526 ft 186 kts 50°
2026-05-04 14:48 40.51957 14.74788 2343 ft 173 kts 50°
2026-05-04 14:48 40.52701 14.75966 2166 ft 162 kts 50°
2026-05-04 14:48 40.53397 14.77069 1971 ft 152 kts 50°
2026-05-04 14:49 40.54061 14.78122 1868 ft 148 kts 50°
2026-05-04 14:49 40.54711 14.79159 1810 ft 146 kts 50°
2026-05-04 14:49 40.55359 14.80192 1812 ft 146 kts 50°
2026-05-04 14:49 40.56010 14.81231 1703 ft 148 kts 50°
2026-05-04 14:50 40.56659 14.82269 1503 ft 146 kts 50°
2026-05-04 14:50 40.57310 14.83290 1501 ft 147 kts 46°
2026-05-04 14:50 40.58209 14.83873 1512 ft 146 kts 12°
2026-05-04 14:50 40.59219 14.84102 1499 ft 145 kts
2026-05-04 14:51 40.60219 14.84281 1507 ft 145 kts
2026-05-04 14:51 40.61212 14.84484 1496 ft 146 kts 14°
2026-05-04 14:51 40.62023 14.85275 1514 ft 148 kts 46°
2026-05-04 14:51 40.62678 14.86314 1511 ft 148 kts 51°
2026-05-04 14:52 40.63310 14.87378 1504 ft 148 kts 51°
2026-05-04 14:52 40.63937 14.88448 1509 ft 147 kts 52°
2026-05-04 14:52 40.64562 14.89509 1499 ft 147 kts 52°
2026-05-04 14:52 40.65187 14.90574 1497 ft 147 kts 52°
2026-05-04 14:53 40.65714 14.91722 1446 ft 148 kts 79°
2026-05-04 14:53 40.65503 14.93011 1359 ft 148 kts 123°
2026-05-04 14:53 40.64745 14.93789 1100 ft 136 kts 166°
2026-05-04 14:53 40.63837 14.93650 810 ft 131 kts 207°
2026-05-04 14:54 40.63104 14.92980 480 ft 126 kts 225°
2026-05-04 14:54 40.62526 14.92141 243 ft 122 kts 232°
2026-05-04 14:54 40.62007 14.91278 93 ft 112 kts 234°
2026-05-04 14:54 40.61651 14.90675 86 ft 43 kts 231°
2026-05-04 14:55 40.61496 14.90417 86 ft 34 kts 232°
2026-05-04 14:55 40.61361 14.90187 87 ft 30 kts 231°
2026-05-04 14:55 40.61300 14.90113 88 ft 6 kts 236°
2026-05-04 14:55 40.61324 14.90117 87 ft 8 kts 58°
2026-05-04 14:56 40.61389 14.90236 86 ft 24 kts 52°
2026-05-04 14:56 40.61521 14.90457 85 ft 37 kts 52°
2026-05-04 14:56 40.61700 14.90759 85 ft 44 kts 52°
2026-05-04 14:56 40.61883 14.91066 86 ft 42 kts 52°
2026-05-04 14:57 40.62057 14.91359 88 ft 40 kts 52°
2026-05-04 14:57 40.62119 14.91576 85 ft 10 kts 81°
2026-05-04 14:57 40.62130 14.91671 86 ft 10 kts 82°
2026-05-04 14:57 40.62137 14.91749 84 ft 9 kts 91°
2026-05-04 14:58 40.62103 14.91807 86 ft 7 kts 146°
2026-05-04 14:58 40.62062 14.91847 84 ft 7 kts 142°
2026-05-04 14:58 40.62036 14.91896 84 ft 7 kts 84°
2026-05-04 14:58 40.62066 14.91950 84 ft 8 kts 51°
2026-05-04 14:59 40.62101 14.92009 84 ft 9 kts 52°
2026-05-04 14:59 40.62117 14.92061 86 ft 5 kts 121°
2026-05-04 14:59 40.62086 14.92088 85 ft 0 kts 141°